CZ-2D DEB, 44610

Orbit data source: Space-Track

CZ-2D DEB, 44610 is space debris in SSO originally from a launch on Mon, 09 Oct 2017 UTC launched from the Jiuquan Satellite Launch Center, China (JSC). Debris objects in space refer to the collection of defunct objects orbiting the Earth. Examples of debris include non-operational satellites, rocket bodies, and fragments generated from explosions, collisions, or faulty payload assembly.

Loading next visibility...
Identifier
44610, 2017-060C
Orbit
SSO
Last TLE update
15 hours ago
Origin
Manufacturer
Unknown
Mission
Spacecraft
Bus & Motor
Unknown
Mass
Unknown
Launch date (UTC)
2017-10-09 (8 years ago)
Launch vehicle
Unknown
Launch site
Jiuquan Satellite Launch Center, China (JSC)
Object type
Payload
Rocket body
Debris
Shape & HBR
Unknown
Radar Cross Section
Small (<0.1 m²)

Expand to show TLE details & history

TLE from 15 hours ago
0 CZ-2D DEB
1 44610U 17060C   25181.73389449  .00003937  00000-0  29999-3 0  9996
2 44610  98.2467 359.1309 0019462 187.8607 172.2314 15.02565687416356
Epoch: 2025-06-30T17:36Z
TLE epoch observation values (Epoch: 2025-06-30T17:36:48.483Z)
Latitude
-0.00006°
Longitude
175.88944°
Altitude
575.41 km
Speed
7.566 km/s
True Right ascension
23h 56m 31s
True Declination
0° 00' 00"
Sunlit
Object was in daylight at epoch
Visualization orbit readout
Latitude
36.8263°
Longitude
2.75109°
Altitude
554.171 km
Speed
7.594 km/s
Apparent Right ascension
10h 28m 39s
Apparent Declination
0° 24' 16"
Sunlit
Object is in daylight
Visualization observer readout
Local Sidereal Time
20:16:04
Azimuth
314.783° NW
Elevation
-39.615°
Doppler factor
1
Orbital elements
Apogee altitude
569.51 km
Perigee altitude
542.52 km
Semi-major axis
6,934.152 km
Eccentricity
0.00195
Inclination
98.2467°
RAAN
359.1309°
Arg. of periapsis
187.8607°
True anomaly
Unknown
Mean anomaly
172.2314°
Eccentric anomaly
Unknown
Mean motion
3.75883 °/min
Orbital period
95.77 mins
BSTAR
0.00029999
Loading maneuver chart data...
Loading SW <> Apogee altitude chart data...
Loading historical data...
Loading historical data...
Loading historical data...
Loading historical data...
Loading historical data...
Loading historical data...
Loading historical data...
Other satellites on launch #60 in the year 2017 (2017-10-09 UTC)

CZ-2D DEB Visibility forecast

Observer location: undefined°, undefined°

Span
Click to sort rows by Start time (UTC) header in descending order
Start Az.
Max El. time (UTC)
Max El. Az.
Max El.
End time (UTC)
End Az.
6 mins2025-07-01 11:19:55.086Z134.401° SE2025-07-01 11:22:55.086Z69.237° E31.577°2025-07-01 11:25:55.086Z7.726° NNE
6 mins2025-07-02 00:33:55.086Z27.128° NE2025-07-02 00:35:55.086Z81.652° E40.901°2025-07-02 00:39:55.086Z182.66° SSW
|